Tabellarische Ansicht des 19.7.2019


Die einzelnen Werte des Tages

Uhrzeit Temperatur Luftdruck Luftfeuchte Wind Hi-Wind Taupunkt THW Index Wind Chill Heat Index Solar- strahlung Regen

00:00

19.6 C

1008.0 hpa

61 %

6.4 km/h aus 117

11.3 km/h aus SSW

11.8 C

19.3 C

19.6 C

19.3 C

0 W/m

0.00 mm

00:05

19.7 C

1008.0 hpa

61 %

4.8 km/h aus 111

11.3 km/h aus SW

11.9 C

19.5 C

19.7 C

19.5 C

0 W/m

0.00 mm

00:10

19.7 C

1008.0 hpa

60 %

4.8 km/h aus 116

9.7 km/h aus SW

11.7 C

19.5 C

19.7 C

19.5 C

0 W/m

0.00 mm

00:15

19.8 C

1008.0 hpa

61 %

4.8 km/h aus 117

8.0 km/h aus SW

12.0 C

19.6 C

19.8 C

19.6 C

0 W/m

0.00 mm

00:20

19.8 C

1008.0 hpa

61 %

4.8 km/h aus 116

8.0 km/h aus SW

12.1 C

19.7 C

19.8 C

19.7 C

0 W/m

0.00 mm

00:25

19.9 C

1008.0 hpa

61 %

4.8 km/h aus 116

9.7 km/h aus SW

12.1 C

19.8 C

19.9 C

19.8 C

0 W/m

0.00 mm

00:30

19.9 C

1008.0 hpa

61 %

4.8 km/h aus 114

9.7 km/h aus SW

12.2 C

19.8 C

19.9 C

19.8 C

0 W/m

0.00 mm

00:35

20.0 C

1008.0 hpa

62 %

6.4 km/h aus 116

11.3 km/h aus SW

12.5 C

19.9 C

20.0 C

19.9 C

0 W/m

0.00 mm

00:40

20.1 C

1008.0 hpa

62 %

4.8 km/h aus 116

9.7 km/h aus SW

12.5 C

20.0 C

20.1 C

20.0 C

0 W/m

0.00 mm

00:45

20.1 C

1008.2 hpa

62 %

4.8 km/h aus 117

6.4 km/h aus WSW

12.5 C

20.0 C

20.1 C

20.0 C

0 W/m

0.00 mm

00:50

20.1 C

1008.2 hpa

62 %

3.2 km/h aus 115

6.4 km/h aus SW

12.5 C

20.0 C

20.1 C

20.0 C

0 W/m

0.00 mm

00:55

20.1 C

1008.2 hpa

62 %

3.2 km/h aus 115

8.0 km/h aus SW

12.5 C

20.0 C

20.1 C

20.0 C

0 W/m

0.00 mm

01:00

20.1 C

1008.3 hpa

62 %

4.8 km/h aus 117

8.0 km/h aus SW

12.5 C

20.0 C

20.1 C

20.0 C

0 W/m

0.00 mm

01:05

20.1 C

1008.3 hpa

62 %

4.8 km/h aus 117

9.7 km/h aus SSW

12.5 C

20.0 C

20.1 C

20.0 C

0 W/m

0.00 mm

01:10

20.0 C

1008.3 hpa

63 %

4.8 km/h aus 117

8.0 km/h aus SW

12.7 C

20.0 C

20.0 C

20.0 C

0 W/m

0.00 mm

01:15

20.0 C

1008.3 hpa

63 %

4.8 km/h aus 114

8.0 km/h aus SW

12.7 C

20.0 C

20.0 C

20.0 C

0 W/m

0.00 mm

01:20

19.9 C

1008.3 hpa

63 %

4.8 km/h aus 116

8.0 km/h aus SW

12.7 C

19.9 C

19.9 C

19.9 C

0 W/m

0.00 mm

01:25

19.9 C

1008.3 hpa

64 %

3.2 km/h aus 115

8.0 km/h aus SW

12.9 C

19.9 C

19.9 C

19.9 C

0 W/m

0.00 mm

01:30

19.9 C

1008.4 hpa

64 %

4.8 km/h aus 117

8.0 km/h aus SW

12.9 C

19.9 C

19.9 C

19.9 C

0 W/m

0.00 mm

01:35

19.8 C

1008.4 hpa

64 %

4.8 km/h aus 115

6.4 km/h aus S

12.8 C

19.8 C

19.8 C

19.8 C

0 W/m

0.00 mm

01:40

19.8 C

1008.4 hpa

65 %

4.8 km/h aus 114

8.0 km/h aus SW

13.0 C

19.8 C

19.8 C

19.8 C

0 W/m

0.00 mm

01:45

19.7 C

1008.4 hpa

65 %

4.8 km/h aus 116

6.4 km/h aus SSW

13.0 C

19.8 C

19.7 C

19.8 C

0 W/m

0.00 mm

01:50

19.7 C

1008.4 hpa

65 %

3.2 km/h aus 117

6.4 km/h aus SSW

13.0 C

19.8 C

19.7 C

19.8 C

0 W/m

0.00 mm

01:55

19.7 C

1008.4 hpa

65 %

3.2 km/h aus 115

6.4 km/h aus SSW

12.9 C

19.7 C

19.7 C

19.7 C

0 W/m

0.00 mm

02:00

19.6 C

1008.4 hpa

65 %

3.2 km/h aus 115

6.4 km/h aus SSW

12.8 C

19.7 C

19.6 C

19.7 C

0 W/m

0.00 mm

02:05

19.6 C

1008.4 hpa

66 %

3.2 km/h aus 116

6.4 km/h aus SSW

13.0 C

19.6 C

19.6 C

19.6 C

0 W/m

0.00 mm

02:10

19.5 C

1008.4 hpa

66 %

3.2 km/h aus 117

4.8 km/h aus SSW

13.0 C

19.6 C

19.5 C

19.6 C

0 W/m

0.00 mm

02:15

19.4 C

1008.5 hpa

66 %

3.2 km/h aus 116

6.4 km/h aus SSW

12.9 C

19.5 C

19.4 C

19.5 C

0 W/m

0.00 mm

02:20

19.4 C

1008.5 hpa

68 %

4.8 km/h aus 114

6.4 km/h aus SSW

13.4 C

19.6 C

19.4 C

19.6 C

0 W/m

0.00 mm

02:25

19.4 C

1008.5 hpa

69 %

6.4 km/h aus 112

6.4 km/h aus SSW

13.6 C

19.6 C

19.4 C

19.6 C

0 W/m

0.00 mm

02:30

19.3 C

1008.5 hpa

69 %

6.4 km/h aus 116

8.0 km/h aus SSW

13.5 C

19.5 C

19.3 C

19.5 C

0 W/m

0.00 mm

02:35

19.3 C

1008.5 hpa

68 %

4.8 km/h aus 117

6.4 km/h aus S

13.2 C

19.4 C

19.3 C

19.4 C

0 W/m

0.00 mm

02:40

19.2 C

1008.5 hpa

69 %

3.2 km/h aus 117

4.8 km/h aus S

13.4 C

19.3 C

19.2 C

19.3 C

0 W/m

0.00 mm

02:45

19.2 C

1008.4 hpa

68 %

3.2 km/h aus 115

4.8 km/h aus S

13.1 C

19.2 C

19.2 C

19.2 C

0 W/m

0.00 mm

02:50

19.1 C

1008.4 hpa

69 %

3.2 km/h aus 113

4.8 km/h aus S

13.3 C

19.2 C

19.1 C

19.2 C

0 W/m

0.00 mm

02:55

19.1 C

1008.4 hpa

70 %

4.8 km/h aus 115

6.4 km/h aus S

13.5 C

19.2 C

19.1 C

19.2 C

0 W/m

0.00 mm

03:00

19.1 C

1008.3 hpa

70 %

3.2 km/h aus 117

4.8 km/h aus S

13.5 C

19.2 C

19.1 C

19.2 C

0 W/m

0.00 mm

03:05

19.0 C

1008.3 hpa

70 %

3.2 km/h aus 115

4.8 km/h aus S

13.4 C

19.1 C

19.0 C

19.1 C

0 W/m

0.00 mm

03:10

18.9 C

1008.3 hpa

70 %

1.6 km/h aus 114

3.2 km/h aus S

13.3 C

19.1 C

18.9 C

19.1 C

0 W/m

0.00 mm

03:15

18.9 C

1008.3 hpa

69 %

1.6 km/h aus 116

4.8 km/h aus S

13.1 C

18.9 C

18.9 C

18.9 C

0 W/m

0.00 mm

03:20

18.8 C

1008.3 hpa

69 %

3.2 km/h aus 116

6.4 km/h aus S

13.0 C

18.9 C

18.8 C

18.9 C

0 W/m

0.00 mm

03:25

18.7 C

1008.3 hpa

70 %

4.8 km/h aus 116

8.0 km/h aus SW

13.1 C

18.8 C

18.7 C

18.8 C

0 W/m

0.00 mm

03:30

18.7 C

1008.5 hpa

71 %

4.8 km/h aus 115

8.0 km/h aus SW

13.3 C

18.8 C

18.7 C

18.8 C

0 W/m

0.00 mm

03:35

18.7 C

1008.5 hpa

71 %

4.8 km/h aus 113

6.4 km/h aus SSW

13.3 C

18.8 C

18.7 C

18.8 C

0 W/m

0.00 mm

03:40

18.6 C

1008.5 hpa

71 %

3.2 km/h aus 117

6.4 km/h aus SSW

13.2 C

18.7 C

18.6 C

18.7 C

0 W/m

0.00 mm

03:45

18.6 C

1008.5 hpa

71 %

4.8 km/h aus 116

6.4 km/h aus SSW

13.2 C

18.6 C

18.6 C

18.6 C

0 W/m

0.00 mm

03:50

18.4 C

1008.5 hpa

71 %

4.8 km/h aus 117

8.0 km/h aus SSW

13.1 C

18.5 C

18.4 C

18.5 C

0 W/m

0.00 mm

03:55

18.4 C

1008.5 hpa

72 %

4.8 km/h aus 114

6.4 km/h aus SSW

13.3 C

18.6 C

18.4 C

18.6 C

0 W/m

0.00 mm

04:00

18.4 C

1008.5 hpa

72 %

3.2 km/h aus 116

6.4 km/h aus SSW

13.2 C

18.4 C

18.4 C

18.4 C

0 W/m

0.00 mm

04:05

18.4 C

1008.5 hpa

73 %

3.2 km/h aus 117

6.4 km/h aus SSW

13.5 C

18.5 C

18.4 C

18.5 C

0 W/m

0.00 mm

04:10

18.3 C

1008.5 hpa

73 %

3.2 km/h aus 115

4.8 km/h aus S

13.4 C

18.4 C

18.3 C

18.4 C

0 W/m

0.00 mm

04:15

18.3 C

1008.5 hpa

73 %

4.8 km/h aus 117

9.7 km/h aus SSW

13.4 C

18.4 C

18.3 C

18.4 C

0 W/m

0.00 mm

04:20

18.2 C

1008.5 hpa

73 %

3.2 km/h aus 112

6.4 km/h aus SSW

13.3 C

18.3 C

18.2 C

18.3 C

0 W/m

0.00 mm

04:25

18.2 C

1008.5 hpa

73 %

3.2 km/h aus 117

4.8 km/h aus SSW

13.2 C

18.2 C

18.2 C

18.2 C

0 W/m

0.00 mm

04:30

18.1 C

1008.5 hpa

73 %

3.2 km/h aus 116

4.8 km/h aus SSW

13.2 C

18.2 C

18.1 C

18.2 C

0 W/m

0.00 mm

04:35

18.0 C

1008.5 hpa

73 %

3.2 km/h aus 116

4.8 km/h aus SSW

13.1 C

18.1 C

18.0 C

18.1 C

0 W/m

0.00 mm

04:40

17.9 C

1008.5 hpa

74 %

4.8 km/h aus 116

4.8 km/h aus SSW

13.2 C

17.9 C

17.9 C

17.9 C

0 W/m

0.00 mm

04:45

17.8 C

1008.5 hpa

74 %

4.8 km/h aus 112

6.4 km/h aus SSW

13.1 C

17.8 C

17.8 C

17.8 C

0 W/m

0.00 mm

04:50

17.7 C

1008.5 hpa

74 %

4.8 km/h aus 117

6.4 km/h aus S

13.0 C

17.7 C

17.7 C

17.7 C

0 W/m

0.00 mm

04:55

17.6 C

1008.5 hpa

74 %

3.2 km/h aus 116

4.8 km/h aus S

12.9 C

17.6 C

17.6 C

17.6 C

0 W/m

0.00 mm

05:00

17.4 C

1008.6 hpa

74 %

4.8 km/h aus 117

9.7 km/h aus SSW

12.8 C

17.4 C

17.4 C

17.4 C

0 W/m

0.00 mm

05:05

17.3 C

1008.6 hpa

75 %

4.8 km/h aus 114

11.3 km/h aus SSW

12.9 C

17.3 C

17.3 C

17.3 C

0 W/m

0.00 mm

05:10

17.2 C

1008.6 hpa

76 %

4.8 km/h aus 115

8.0 km/h aus SSW

13.0 C

17.2 C

17.2 C

17.2 C

0 W/m

0.00 mm

05:15

17.2 C

1008.9 hpa

77 %

4.8 km/h aus 117

8.0 km/h aus SW

13.2 C

17.3 C

17.2 C

17.3 C

0 W/m

0.00 mm

05:20

17.2 C

1008.9 hpa

79 %

4.8 km/h aus 116

11.3 km/h aus SSW

13.5 C

17.3 C

17.2 C

17.3 C

4 W/m

0.00 mm

05:25

17.2 C

1008.9 hpa

79 %

4.8 km/h aus 116

6.4 km/h aus SSW

13.5 C

17.3 C

17.2 C

17.3 C

6 W/m

0.00 mm

05:30

17.2 C

1008.9 hpa

79 %

6.4 km/h aus 114

11.3 km/h aus SSW

13.5 C

17.3 C

17.2 C

17.3 C

8 W/m

0.00 mm

05:35

17.3 C

1008.9 hpa

80 %

8.0 km/h aus 107

14.5 km/h aus SSW

13.8 C

17.4 C

17.3 C

17.4 C

12 W/m

0.00 mm

05:40

17.3 C

1008.9 hpa

80 %

8.0 km/h aus 104

16.1 km/h aus SSW

13.8 C

17.5 C

17.3 C

17.5 C

17 W/m

0.00 mm

05:45

17.4 C

1009.0 hpa

80 %

8.0 km/h aus 110

12.9 km/h aus SSW

13.9 C

17.6 C

17.4 C

17.6 C

23 W/m

0.00 mm

05:50

17.4 C

1009.0 hpa

81 %

8.0 km/h aus 115

16.1 km/h aus SSW

14.1 C

17.7 C

17.4 C

17.7 C

30 W/m

0.00 mm

05:55

17.5 C

1009.0 hpa

81 %

6.4 km/h aus 104

16.1 km/h aus SSW

14.2 C

17.7 C

17.5 C

17.7 C

35 W/m

0.00 mm

06:00

17.6 C

1009.0 hpa

81 %

8.0 km/h aus 112

16.1 km/h aus SSW

14.3 C

17.8 C

17.6 C

17.8 C

37 W/m

0.00 mm

06:05

17.6 C

1009.0 hpa

81 %

8.0 km/h aus 112

14.5 km/h aus SW

14.3 C

17.9 C

17.6 C

17.9 C

30 W/m

0.00 mm

06:10

17.7 C

1009.0 hpa

81 %

6.4 km/h aus 115

9.7 km/h aus SW

14.4 C

17.9 C

17.7 C

17.9 C

32 W/m

0.00 mm

06:15

17.7 C

1009.0 hpa

81 %

6.4 km/h aus 116

9.7 km/h aus S

14.4 C

18.0 C

17.7 C

18.0 C

37 W/m

0.00 mm

06:20

17.8 C

1009.0 hpa

81 %

6.4 km/h aus 110

9.7 km/h aus SSW

14.5 C

18.1 C

17.8 C

18.1 C

37 W/m

0.00 mm

06:25

17.8 C

1009.0 hpa

81 %

6.4 km/h aus 113

11.3 km/h aus SSW

14.5 C

18.1 C

17.8 C

18.1 C

45 W/m

0.00 mm

06:30

17.8 C

1009.0 hpa

80 %

6.4 km/h aus 115

11.3 km/h aus SSW

14.3 C

18.1 C

17.8 C

18.1 C

73 W/m

0.00 mm

06:35

17.9 C

1009.0 hpa

80 %

6.4 km/h aus 116

9.7 km/h aus SSW

14.4 C

18.2 C

17.9 C

18.2 C

110 W/m

0.00 mm

06:40

18.0 C

1009.0 hpa

80 %

6.4 km/h aus 113

9.7 km/h aus S

14.5 C

18.3 C

18.0 C

18.3 C

107 W/m

0.00 mm

06:45

18.1 C

1009.0 hpa

80 %

8.0 km/h aus 113

16.1 km/h aus SSW

14.6 C

18.4 C

18.1 C

18.4 C

59 W/m

0.00 mm

06:50

18.1 C

1009.0 hpa

80 %

8.0 km/h aus 108

11.3 km/h aus S

14.6 C

18.4 C

18.1 C

18.4 C

53 W/m

0.00 mm

06:55

18.2 C

1009.0 hpa

80 %

6.4 km/h aus 103

14.5 km/h aus S

14.7 C

18.5 C

18.2 C

18.5 C

61 W/m

0.00 mm

07:00

18.2 C

1009.0 hpa

80 %

8.0 km/h aus 101

16.1 km/h aus SSW

14.7 C

18.6 C

18.2 C

18.6 C

44 W/m

0.00 mm

07:05

18.2 C

1009.0 hpa

79 %

11.3 km/h aus 106

17.7 km/h aus SSW

14.5 C

18.6 C

18.2 C

18.6 C

23 W/m

0.00 mm

07:10

18.2 C

1009.0 hpa

79 %

11.3 km/h aus 114

17.7 km/h aus S

14.5 C

18.6 C

18.2 C

18.6 C

38 W/m

0.00 mm

07:15

18.2 C

1009.2 hpa

79 %

9.7 km/h aus 111

16.1 km/h aus SW

14.5 C

18.6 C

18.2 C

18.6 C

51 W/m

0.00 mm

07:20

18.2 C

1009.2 hpa

79 %

9.7 km/h aus 117

17.7 km/h aus SW

14.5 C

18.6 C

18.2 C

18.6 C

61 W/m

0.00 mm

07:25

18.3 C

1009.2 hpa

80 %

8.0 km/h aus 115

14.5 km/h aus SSW

14.8 C

18.7 C

18.3 C

18.7 C

79 W/m

0.00 mm

07:30

18.3 C

1009.4 hpa

80 %

8.0 km/h aus 113

14.5 km/h aus S

14.8 C

18.7 C

18.3 C

18.7 C

82 W/m

0.00 mm

07:35

18.3 C

1009.4 hpa

80 %

6.4 km/h aus 111

11.3 km/h aus SSW

14.8 C

18.7 C

18.3 C

18.7 C

90 W/m

0.00 mm

07:40

18.4 C

1009.4 hpa

80 %

8.0 km/h aus 112

16.1 km/h aus SW

14.9 C

18.8 C

18.4 C

18.8 C

128 W/m

0.00 mm

07:45

18.4 C

1009.5 hpa

80 %

9.7 km/h aus 116

17.7 km/h aus SSW

14.9 C

18.8 C

18.4 C

18.8 C

139 W/m

0.00 mm

07:50

18.6 C

1009.5 hpa

80 %

8.0 km/h aus 113

16.1 km/h aus SW

15.0 C

19.0 C

18.6 C

19.0 C

147 W/m

0.00 mm

07:55

18.6 C

1009.5 hpa

79 %

8.0 km/h aus 115

14.5 km/h aus SSW

14.9 C

19.0 C

18.6 C

19.0 C

143 W/m

0.00 mm

08:00

18.7 C

1009.5 hpa

79 %

8.0 km/h aus 113

16.1 km/h aus S

14.9 C

19.1 C

18.7 C

19.1 C

91 W/m

0.00 mm

08:05

18.7 C

1009.5 hpa

79 %

8.0 km/h aus 115

16.1 km/h aus SW

15.0 C

19.2 C

18.7 C

19.2 C

122 W/m

0.00 mm

08:10

18.8 C

1009.5 hpa

79 %

6.4 km/h aus 115

16.1 km/h aus SSW

15.1 C

19.2 C

18.8 C

19.2 C

134 W/m

0.00 mm

08:15

18.8 C

1009.7 hpa

79 %

8.0 km/h aus 111

16.1 km/h aus SW

15.1 C

19.3 C

18.8 C

19.3 C

113 W/m

0.00 mm

08:20

18.9 C

1009.7 hpa

79 %

9.7 km/h aus 92

19.3 km/h aus WSW

15.2 C

19.3 C

18.9 C

19.3 C

138 W/m

0.00 mm

08:25

18.9 C

1009.7 hpa

79 %

6.4 km/h aus 109

16.1 km/h aus WSW

15.2 C

19.4 C

18.9 C

19.4 C

155 W/m

0.00 mm

08:30

19.0 C

1009.8 hpa

78 %

8.0 km/h aus 96

16.1 km/h aus WSW

15.1 C

19.4 C

19.0 C

19.4 C

148 W/m

0.00 mm

08:35

19.1 C

1009.8 hpa

78 %

8.0 km/h aus 105

16.1 km/h aus S

15.1 C

19.5 C

19.1 C

19.5 C

179 W/m

0.00 mm

08:40

19.2 C

1009.8 hpa

78 %

8.0 km/h aus 103

16.1 km/h aus SW

15.2 C

19.6 C

19.2 C

19.6 C

210 W/m

0.00 mm

08:45

19.3 C

1009.9 hpa

78 %

4.8 km/h aus 91

14.5 km/h aus SW

15.3 C

19.8 C

19.3 C

19.8 C

232 W/m

0.00 mm

08:50

19.3 C

1009.9 hpa

77 %

4.8 km/h aus 100

9.7 km/h aus SSW

15.2 C

19.8 C

19.3 C

19.8 C

160 W/m

0.00 mm

08:55

19.4 C

1009.9 hpa

77 %

8.0 km/h aus 116

16.1 km/h aus SSW

15.3 C

19.9 C

19.4 C

19.9 C

227 W/m

0.00 mm

09:00

19.5 C

1009.9 hpa

76 %

6.4 km/h aus 113

11.3 km/h aus SSW

15.2 C

19.9 C

19.5 C

19.9 C

279 W/m

0.00 mm

09:05

19.7 C

1009.9 hpa

77 %

6.4 km/h aus 112

9.7 km/h aus SW

15.5 C

20.2 C

19.7 C

20.2 C

304 W/m

0.00 mm

09:10

20.1 C

1009.9 hpa

76 %

6.4 km/h aus 114

11.3 km/h aus SW

15.7 C

20.6 C

20.1 C

20.6 C

475 W/m

0.00 mm

09:15

20.3 C

1009.9 hpa

75 %

8.0 km/h aus 89

11.3 km/h aus SW

15.7 C

20.8 C

20.3 C

20.8 C

406 W/m

0.00 mm

09:20

20.6 C

1009.9 hpa

75 %

4.8 km/h aus 101

9.7 km/h aus SW

16.0 C

21.1 C

20.6 C

21.1 C

508 W/m

0.00 mm

09:25

20.9 C

1009.9 hpa

71 %

4.8 km/h aus 95

14.5 km/h aus SW

15.4 C

21.1 C

20.9 C

21.1 C

571 W/m

0.00 mm

09:30

20.8 C

1009.8 hpa

73 %

6.4 km/h aus 98

9.7 km/h aus SW

15.8 C

21.2 C

20.8 C

21.2 C

326 W/m

0.00 mm

09:35

20.7 C

1009.8 hpa

72 %

6.4 km/h aus 99

16.1 km/h aus S

15.4 C

21.0 C

20.7 C

21.0 C

243 W/m

0.00 mm

09:40

20.5 C

1009.8 hpa

73 %

8.0 km/h aus 85

16.1 km/h aus S

15.5 C

20.9 C

20.5 C

20.9 C

253 W/m

0.00 mm

09:45

20.7 C

1009.7 hpa

73 %

8.0 km/h aus 82

14.5 km/h aus SW

15.7 C

21.1 C

20.7 C

21.1 C

258 W/m

0.00 mm

09:50

20.6 C

1009.7 hpa

72 %

8.0 km/h aus 90

14.5 km/h aus SSW

15.3 C

20.9 C

20.6 C

20.9 C

379 W/m

0.00 mm

09:55

21.1 C

1009.7 hpa

72 %

9.7 km/h aus 99

17.7 km/h aus SW

15.8 C

21.2 C

21.1 C

21.2 C

603 W/m

0.00 mm

10:00

21.1 C

1009.8 hpa

71 %

11.3 km/h aus 106

19.3 km/h aus S

15.6 C

21.2 C

21.1 C

21.2 C

342 W/m

0.00 mm

10:05

21.1 C

1009.8 hpa

71 %

9.7 km/h aus 109

17.7 km/h aus SSW

15.6 C

21.2 C

21.1 C

21.2 C

502 W/m

0.00 mm

10:10

20.7 C

1009.8 hpa

70 %

9.7 km/h aus 107

17.7 km/h aus SSW

15.1 C

20.9 C

20.7 C

20.9 C

226 W/m

0.00 mm

10:15

21.1 C

1009.9 hpa

71 %

8.0 km/h aus 107

16.1 km/h aus SSW

15.6 C

21.2 C

21.1 C

21.2 C

362 W/m

0.00 mm

10:20

21.2 C

1009.9 hpa

70 %

6.4 km/h aus 103

16.1 km/h aus SSW

15.5 C

21.3 C

21.2 C

21.3 C

310 W/m

0.00 mm

10:25

21.3 C

1009.9 hpa

70 %

6.4 km/h aus 110

14.5 km/h aus SW

15.6 C

21.4 C

21.3 C

21.4 C

432 W/m

0.00 mm

10:30

21.2 C

1010.0 hpa

68 %

12.9 km/h aus 113

19.3 km/h aus SW

15.1 C

20.9 C

20.9 C

21.2 C

488 W/m

0.00 mm

10:35

21.8 C

1010.0 hpa

68 %

8.0 km/h aus 97

16.1 km/h aus WSW

15.7 C

22.0 C

21.8 C

22.0 C

525 W/m

0.00 mm

10:40

22.1 C

1010.0 hpa

65 %

11.3 km/h aus 99

20.9 km/h aus WSW

15.2 C

22.2 C

22.1 C

22.2 C

551 W/m

0.00 mm

10:45

21.8 C

1010.0 hpa

66 %

9.7 km/h aus 108

19.3 km/h aus SW

15.2 C

21.9 C

21.8 C

21.9 C

437 W/m

0.00 mm

10:50

21.8 C

1010.0 hpa

65 %

9.7 km/h aus 99

17.7 km/h aus WSW

15.0 C

21.8 C

21.8 C

21.8 C

227 W/m

0.00 mm

10:55

21.5 C

1010.0 hpa

67 %

8.0 km/h aus 107

14.5 km/h aus W

15.1 C

21.5 C

21.5 C

21.5 C

243 W/m

0.00 mm

11:00

22.1 C

1010.0 hpa

67 %

6.4 km/h aus 116

14.5 km/h aus W

15.6 C

22.3 C

22.1 C

22.3 C

354 W/m

0.00 mm

11:05

22.4 C

1010.0 hpa

63 %

11.3 km/h aus 117

19.3 km/h aus WSW

15.0 C

22.6 C

22.4 C

22.6 C

417 W/m

0.00 mm

11:10

22.0 C

1010.0 hpa

65 %

8.0 km/h aus 117

16.1 km/h aus SSW

15.1 C

22.1 C

22.0 C

22.1 C

151 W/m

0.00 mm

11:15

22.0 C

1010.0 hpa

65 %

11.3 km/h aus 112

17.7 km/h aus W

15.1 C

22.1 C

22.0 C

22.1 C

122 W/m

0.00 mm

11:20

22.0 C

1010.0 hpa

65 %

9.7 km/h aus 112

17.7 km/h aus WSW

15.1 C

22.1 C

22.0 C

22.1 C

151 W/m

0.00 mm

11:25

21.4 C

1010.0 hpa

66 %

8.0 km/h aus 116

17.7 km/h aus W

14.8 C

21.4 C

21.4 C

21.4 C

206 W/m

0.00 mm

11:30

21.3 C

1010.0 hpa

67 %

9.7 km/h aus 111

16.1 km/h aus WNW

15.0 C

21.3 C

21.3 C

21.3 C

247 W/m

0.00 mm

11:35

22.3 C

1010.0 hpa

65 %

9.7 km/h aus 115

16.1 km/h aus W

15.4 C

22.4 C

22.3 C

22.4 C

639 W/m

0.00 mm

11:40

22.7 C

1010.0 hpa

65 %

6.4 km/h aus 115

14.5 km/h aus WSW

15.8 C

23.1 C

22.7 C

23.1 C

548 W/m

0.00 mm

11:45

23.2 C

1009.8 hpa

61 %

6.4 km/h aus 115

14.5 km/h aus WSW

15.2 C

23.6 C

23.2 C

23.6 C

647 W/m

0.00 mm

11:50

23.2 C

1009.8 hpa

61 %

8.0 km/h aus 114

20.9 km/h aus S

15.2 C

23.6 C

23.2 C

23.6 C

515 W/m

0.00 mm

11:55

22.6 C

1009.8 hpa

60 %

6.4 km/h aus 110

16.1 km/h aus W

14.4 C

22.7 C

22.6 C

22.7 C

307 W/m

0.00 mm

12:00

22.6 C

1009.7 hpa

61 %

8.0 km/h aus 110

16.1 km/h aus SW

14.7 C

22.7 C

22.6 C

22.7 C

291 W/m

0.00 mm

12:05

22.7 C

1009.7 hpa

63 %

8.0 km/h aus 109

17.7 km/h aus NW

15.3 C

22.9 C

22.7 C

22.9 C

407 W/m

0.00 mm

12:10

22.9 C

1009.7 hpa

61 %

8.0 km/h aus 108

16.1 km/h aus W

15.0 C

23.3 C

22.9 C

23.3 C

621 W/m

0.00 mm

12:15

23.7 C

1009.7 hpa

59 %

8.0 km/h aus 106

17.7 km/h aus W

15.2 C

24.1 C

23.7 C

24.1 C

625 W/m

0.00 mm

12:20

23.8 C

1009.7 hpa

53 %

8.0 km/h aus 112

17.7 km/h aus W

13.6 C

23.9 C

23.8 C

23.9 C

611 W/m

0.00 mm

12:25

24.8 C

1009.7 hpa

55 %

9.7 km/h aus 113

17.7 km/h aus W

15.1 C

24.9 C

24.8 C

24.9 C

616 W/m

0.00 mm

12:30

24.3 C

1009.6 hpa

52 %

9.7 km/h aus 115

20.9 km/h aus W

13.8 C

24.4 C

24.3 C

24.4 C

637 W/m

0.00 mm

12:35

24.3 C

1009.6 hpa

55 %

11.3 km/h aus 117

20.9 km/h aus SSW

14.7 C

24.5 C

24.3 C

24.5 C

579 W/m

0.00 mm

12:40

24.1 C

1009.6 hpa

55 %

8.0 km/h aus 118

16.1 km/h aus W

14.5 C

24.3 C

24.1 C

24.3 C

194 W/m

0.00 mm

12:45

23.2 C

1009.8 hpa

58 %

12.9 km/h aus 112

20.9 km/h aus WNW

14.4 C

23.1 C

22.9 C

23.4 C

167 W/m

0.00 mm

12:50

22.7 C

1009.8 hpa

59 %

11.3 km/h aus 110

19.3 km/h aus WNW

14.3 C

22.9 C

22.7 C

22.9 C

189 W/m

0.00 mm

12:55

23.6 C

1009.8 hpa

57 %

12.9 km/h aus 111

25.7 km/h aus WSW

14.5 C

23.6 C

23.3 C

23.8 C

569 W/m

0.00 mm

13:00

24.4 C

1009.8 hpa

54 %

9.7 km/h aus 112

19.3 km/h aus SW

14.5 C

24.6 C

24.4 C

24.6 C

650 W/m

0.00 mm

13:05

24.6 C

1009.8 hpa

53 %

6.4 km/h aus 115

14.5 km/h aus W

14.4 C

24.7 C

24.6 C

24.7 C

653 W/m

0.00 mm

13:10

24.2 C

1009.8 hpa

53 %

11.3 km/h aus 115

20.9 km/h aus WSW

14.0 C

24.3 C

24.2 C

24.3 C

351 W/m

0.00 mm

13:15

23.7 C

1009.7 hpa

54 %

9.7 km/h aus 117

16.1 km/h aus WNW

13.8 C

23.8 C

23.7 C

23.8 C

275 W/m

0.00 mm

13:20

23.4 C

1009.7 hpa

54 %

8.0 km/h aus 115

16.1 km/h aus WNW

13.6 C

23.4 C

23.4 C

23.4 C

260 W/m

0.00 mm

13:25

23.2 C

1009.7 hpa

55 %

11.3 km/h aus 112

19.3 km/h aus W

13.6 C

23.2 C

23.2 C

23.2 C

233 W/m

0.00 mm

13:30

22.9 C

1009.8 hpa

56 %

9.7 km/h aus 101

17.7 km/h aus W

13.7 C

23.0 C

22.9 C

23.0 C

262 W/m

0.00 mm

13:35

23.2 C

1009.8 hpa

56 %

11.3 km/h aus 112

20.9 km/h aus W

14.0 C

23.4 C

23.2 C

23.4 C

360 W/m

0.00 mm

13:40

23.1 C

1009.8 hpa

56 %

9.7 km/h aus 113

20.9 km/h aus SW

13.8 C

23.2 C

23.1 C

23.2 C

405 W/m

0.00 mm

13:45

23.3 C

1010.0 hpa

58 %

8.0 km/h aus 115

16.1 km/h aus WSW

14.5 C

23.6 C

23.3 C

23.6 C

438 W/m

0.00 mm

13:50

23.8 C

1010.0 hpa

56 %

6.4 km/h aus 113

14.5 km/h aus WSW

14.5 C

24.2 C

23.8 C

24.2 C

546 W/m

0.00 mm

13:55

23.8 C

1010.0 hpa

55 %

9.7 km/h aus 112

17.7 km/h aus SW

14.2 C

24.0 C

23.8 C

24.0 C

485 W/m

0.00 mm

14:00

23.3 C

1009.9 hpa

58 %

6.4 km/h aus 116

9.7 km/h aus WSW

14.5 C

23.6 C

23.3 C

23.6 C

335 W/m

0.00 mm

14:05

23.5 C

1009.9 hpa

54 %

8.0 km/h aus 113

16.1 km/h aus SSW

13.7 C

23.6 C

23.5 C

23.6 C

378 W/m

0.00 mm

14:10

24.0 C

1009.9 hpa

53 %

8.0 km/h aus 115

19.3 km/h aus WSW

13.8 C

24.2 C

24.0 C

24.2 C

464 W/m

0.00 mm

14:15

24.1 C

1009.8 hpa

55 %

6.4 km/h aus 114

14.5 km/h aus NW

14.5 C

24.3 C

24.1 C

24.3 C

571 W/m

0.00 mm

14:20

24.2 C

1009.8 hpa

53 %

6.4 km/h aus 117

17.7 km/h aus WNW

14.0 C

24.3 C

24.2 C

24.3 C

434 W/m

0.00 mm

14:25

24.2 C

1009.8 hpa

54 %

4.8 km/h aus 117

11.3 km/h aus WNW

14.3 C

24.3 C

24.2 C

24.3 C

589 W/m

0.00 mm

14:30

24.9 C

1009.7 hpa

49 %

11.3 km/h aus 117

17.7 km/h aus WSW

13.4 C

24.8 C

24.9 C

24.8 C

583 W/m

0.00 mm

14:35

24.6 C

1009.7 hpa

52 %

6.4 km/h aus 115

11.3 km/h aus WNW

14.1 C

24.7 C

24.6 C

24.7 C

574 W/m

0.00 mm

14:40

25.0 C

1009.7 hpa

51 %

8.0 km/h aus 115

16.1 km/h aus WNW

14.2 C

24.9 C

25.0 C

24.9 C

533 W/m

0.00 mm

14:45

24.8 C

1009.6 hpa

50 %

8.0 km/h aus 118

19.3 km/h aus S

13.6 C

24.7 C

24.8 C

24.7 C

562 W/m

0.00 mm

14:50

24.8 C

1009.6 hpa

51 %

6.4 km/h aus 117

14.5 km/h aus WSW

14.0 C

24.8 C

24.8 C

24.8 C

537 W/m

0.00 mm

14:55

24.6 C

1009.6 hpa

52 %

6.4 km/h aus 116

14.5 km/h aus W

14.1 C

24.7 C

24.6 C

24.7 C

473 W/m

0.00 mm

15:00

24.2 C

1009.6 hpa

52 %

6.4 km/h aus 114

11.3 km/h aus SSW

13.7 C

24.3 C

24.2 C

24.3 C

266 W/m

0.00 mm

15:05

24.1 C

1009.6 hpa

53 %

9.7 km/h aus 117

16.1 km/h aus WNW

13.9 C

24.3 C

24.1 C

24.3 C

342 W/m

0.00 mm

15:10

24.2 C

1009.6 hpa

54 %

8.0 km/h aus 116

14.5 km/h aus NW

14.3 C

24.3 C

24.2 C

24.3 C

410 W/m

0.00 mm

15:15

24.5 C

1009.6 hpa

53 %

9.7 km/h aus 117

19.3 km/h aus NW

14.3 C

24.6 C

24.5 C

24.6 C

521 W/m

0.00 mm

15:20

24.7 C

1009.6 hpa

54 %

11.3 km/h aus 111

19.3 km/h aus NW

14.8 C

24.8 C

24.7 C

24.8 C

526 W/m

0.00 mm

15:25

24.7 C

1009.6 hpa

52 %

8.0 km/h aus 117

14.5 km/h aus W

14.2 C

24.8 C

24.7 C

24.8 C

422 W/m

0.00 mm

15:30

24.3 C

1009.6 hpa

51 %

4.8 km/h aus 116

16.1 km/h aus W

13.5 C

24.4 C

24.3 C

24.4 C

472 W/m

0.00 mm

15:35

24.7 C

1009.6 hpa

50 %

6.4 km/h aus 116

12.9 km/h aus WSW

13.6 C

24.7 C

24.7 C

24.7 C

499 W/m

0.00 mm

15:40

24.6 C

1009.6 hpa

53 %

6.4 km/h aus 114

17.7 km/h aus W

14.3 C

24.7 C

24.6 C

24.7 C

429 W/m

0.00 mm

15:45

24.6 C

1009.6 hpa

51 %

6.4 km/h aus 114

12.9 km/h aus WSW

13.8 C

24.6 C

24.6 C

24.6 C

355 W/m

0.00 mm

15:50

24.3 C

1009.6 hpa

52 %

6.4 km/h aus 115

11.3 km/h aus W

13.8 C

24.4 C

24.3 C

24.4 C

280 W/m

0.00 mm

15:55

24.0 C

1009.6 hpa

52 %

4.8 km/h aus 117

8.0 km/h aus W

13.5 C

24.1 C

24.0 C

24.1 C

229 W/m

0.00 mm

16:00

23.8 C

1009.6 hpa

52 %

3.2 km/h aus 114

4.8 km/h aus W

13.4 C

23.9 C

23.8 C

23.9 C

180 W/m

0.00 mm

16:05

23.8 C

1009.6 hpa

52 %

6.4 km/h aus 114

11.3 km/h aus WNW

13.3 C

23.9 C

23.8 C

23.9 C

190 W/m

0.00 mm

16:10

23.8 C

1009.6 hpa

54 %

4.8 km/h aus 116

9.7 km/h aus WNW

14.0 C

24.1 C

23.8 C

24.1 C

222 W/m

0.00 mm

16:15

24.1 C

1009.7 hpa

52 %

8.0 km/h aus 117

14.5 km/h aus W

13.6 C

24.2 C

24.1 C

24.2 C

272 W/m

0.00 mm

16:20

24.6 C

1009.7 hpa

52 %

6.4 km/h aus 116

16.1 km/h aus W

14.0 C

24.6 C

24.6 C

24.6 C

555 W/m

0.00 mm

16:25

24.9 C

1009.7 hpa

51 %

8.0 km/h aus 112

14.5 km/h aus WSW

14.1 C

24.8 C

24.9 C

24.8 C

540 W/m

0.00 mm

16:30

24.6 C

1009.7 hpa

51 %

8.0 km/h aus 117

16.1 km/h aus WSW

13.7 C

24.6 C

24.6 C

24.6 C

264 W/m

0.00 mm

16:35

24.2 C

1009.7 hpa

51 %

8.0 km/h aus 117

14.5 km/h aus W

13.4 C

24.3 C

24.2 C

24.3 C

206 W/m

0.00 mm

16:40

24.1 C

1009.7 hpa

52 %

9.7 km/h aus 117

16.1 km/h aus WSW

13.6 C

24.2 C

24.1 C

24.2 C

198 W/m

0.00 mm

16:45

23.9 C

1009.8 hpa

53 %

8.0 km/h aus 115

12.9 km/h aus WNW

13.7 C

24.1 C

23.9 C

24.1 C

197 W/m

0.00 mm

16:50

23.9 C

1009.8 hpa

52 %

4.8 km/h aus 116

11.3 km/h aus W

13.5 C

24.1 C

23.9 C

24.1 C

169 W/m

0.00 mm

16:55

23.9 C

1009.8 hpa

53 %

4.8 km/h aus 118

9.7 km/h aus W

13.8 C

24.1 C

23.9 C

24.1 C

126 W/m

0.00 mm

17:00

24.0 C

1009.7 hpa

52 %

6.4 km/h aus 116

9.7 km/h aus W

13.5 C

24.1 C

24.0 C

24.1 C

122 W/m

0.00 mm

17:05

24.1 C

1009.7 hpa

53 %

3.2 km/h aus 115

8.0 km/h aus WNW

13.9 C

24.2 C

24.1 C

24.2 C

211 W/m

0.00 mm

17:10

24.4 C

1009.7 hpa

51 %

4.8 km/h aus 115

9.7 km/h aus SW

13.6 C

24.4 C

24.4 C

24.4 C

483 W/m

0.00 mm

17:15

24.6 C

1009.7 hpa

52 %

4.8 km/h aus 116

9.7 km/h aus WSW

14.1 C

24.7 C

24.6 C

24.7 C

353 W/m

0.00 mm

17:20

24.3 C

1009.7 hpa

51 %

3.2 km/h aus 116

11.3 km/h aus SW

13.5 C

24.3 C

24.3 C

24.3 C

285 W/m

0.00 mm

17:25

24.1 C

1009.7 hpa

52 %

3.2 km/h aus 117

8.0 km/h aus S

13.6 C

24.2 C

24.1 C

24.2 C

290 W/m

0.00 mm

17:30

24.4 C

1009.6 hpa

53 %

6.4 km/h aus 114

14.5 km/h aus SSE

14.2 C

24.6 C

24.4 C

24.6 C

401 W/m

0.00 mm

17:35

24.7 C

1009.6 hpa

51 %

4.8 km/h aus 114

9.7 km/h aus SSE

13.9 C

24.7 C

24.7 C

24.7 C

398 W/m

0.00 mm

17:40

24.8 C

1009.6 hpa

51 %

8.0 km/h aus 116

11.3 km/h aus SSE

14.0 C

24.8 C

24.8 C

24.8 C

527 W/m

0.00 mm

17:45

25.2 C

1009.5 hpa

50 %

6.4 km/h aus 117

14.5 km/h aus SE

14.0 C

25.1 C

25.2 C

25.1 C

494 W/m

0.00 mm

17:50

25.1 C

1009.5 hpa

50 %

6.4 km/h aus 115

9.7 km/h aus WSW

13.9 C

24.9 C

25.1 C

24.9 C

409 W/m

0.00 mm

17:55

24.4 C

1009.5 hpa

53 %

9.7 km/h aus 114

14.5 km/h aus SSE

14.2 C

24.5 C

24.4 C

24.5 C

176 W/m

0.00 mm

18:00

24.7 C

1009.5 hpa

53 %

9.7 km/h aus 116

16.1 km/h aus SE

14.4 C

24.7 C

24.7 C

24.7 C

434 W/m

0.00 mm

18:05

25.2 C

1009.5 hpa

51 %

8.0 km/h aus 115

17.7 km/h aus SSE

14.3 C

25.2 C

25.2 C

25.2 C

430 W/m

0.00 mm

18:10

25.3 C

1009.5 hpa

51 %

9.7 km/h aus 115

16.1 km/h aus S

14.4 C

25.3 C

25.3 C

25.3 C

387 W/m

0.00 mm

18:15

24.9 C

1009.5 hpa

50 %

8.0 km/h aus 114

11.3 km/h aus S

13.8 C

24.8 C

24.9 C

24.8 C

370 W/m

0.00 mm

18:20

24.9 C

1009.5 hpa

50 %

11.3 km/h aus 116

17.7 km/h aus SSE

13.8 C

24.8 C

24.9 C

24.8 C

366 W/m

0.00 mm

18:25

24.8 C

1009.5 hpa

49 %

11.3 km/h aus 117

17.7 km/h aus SSE

13.4 C

24.7 C

24.8 C

24.7 C

347 W/m

0.00 mm

18:30

24.8 C

1009.5 hpa

49 %

8.0 km/h aus 117

14.5 km/h aus S

13.4 C

24.7 C

24.8 C

24.7 C

354 W/m

0.00 mm

18:35

24.8 C

1009.5 hpa

50 %

6.4 km/h aus 115

9.7 km/h aus SSE

13.7 C

24.8 C

24.8 C

24.8 C

347 W/m

0.00 mm

18:40

24.9 C

1009.5 hpa

50 %

6.4 km/h aus 115

14.5 km/h aus SSE

13.8 C

24.8 C

24.9 C

24.8 C

337 W/m

0.00 mm

18:45

24.8 C

1009.5 hpa

49 %

6.4 km/h aus 116

11.3 km/h aus SSE

13.4 C

24.7 C

24.8 C

24.7 C

257 W/m

0.00 mm

18:50

24.3 C

1009.5 hpa

52 %

4.8 km/h aus 117

9.7 km/h aus SSE

13.8 C

24.4 C

24.3 C

24.4 C

156 W/m

0.00 mm

18:55

24.1 C

1009.5 hpa

52 %

9.7 km/h aus 116

16.1 km/h aus S

13.6 C

24.2 C

24.1 C

24.2 C

124 W/m

0.00 mm

19:00

24.2 C

1009.5 hpa

52 %

6.4 km/h aus 116

11.3 km/h aus S

13.7 C

24.3 C

24.2 C

24.3 C

123 W/m

0.00 mm

19:05

24.3 C

1009.5 hpa

51 %

6.4 km/h aus 117

14.5 km/h aus S

13.5 C

24.3 C

24.3 C

24.3 C

158 W/m

0.00 mm

19:10

24.4 C

1009.5 hpa

51 %

4.8 km/h aus 117

8.0 km/h aus SSW

13.6 C

24.4 C

24.4 C

24.4 C

177 W/m

0.00 mm

19:15

24.2 C

1009.5 hpa

51 %

8.0 km/h aus 117

14.5 km/h aus S

13.4 C

24.3 C

24.2 C

24.3 C

157 W/m

0.00 mm

19:20

24.1 C

1009.5 hpa

52 %

8.0 km/h aus 114

11.3 km/h aus S

13.6 C

24.2 C

24.1 C

24.2 C

119 W/m

0.00 mm

19:25

23.9 C

1009.5 hpa

54 %

9.7 km/h aus 117

14.5 km/h aus SSW

14.1 C

24.2 C

23.9 C

24.2 C

99 W/m

0.00 mm

19:30

23.9 C

1009.5 hpa

52 %

9.7 km/h aus 116

16.1 km/h aus S

13.5 C

24.1 C

23.9 C

24.1 C

79 W/m

0.00 mm

19:35

23.9 C

1009.5 hpa

51 %

8.0 km/h aus 117

12.9 km/h aus S

13.2 C

24.1 C

23.9 C

24.1 C

86 W/m

0.00 mm

19:40

23.9 C

1009.5 hpa

53 %

9.7 km/h aus 115

16.1 km/h aus SSE

13.8 C

24.1 C

23.9 C

24.1 C

97 W/m

0.00 mm

19:45

24.0 C

1009.4 hpa

53 %

8.0 km/h aus 114

11.3 km/h aus SSW

13.8 C

24.2 C

24.0 C

24.2 C

112 W/m

0.00 mm

19:50

24.0 C

1009.4 hpa

52 %

8.0 km/h aus 116

11.3 km/h aus S

13.5 C

24.1 C

24.0 C

24.1 C

121 W/m

0.00 mm

19:55

24.1 C

1009.4 hpa

53 %

9.7 km/h aus 117

14.5 km/h aus SSE

13.9 C

24.2 C

24.1 C

24.2 C

110 W/m

0.00 mm

20:00

24.0 C

1009.5 hpa

52 %

6.4 km/h aus 114

9.7 km/h aus SSW

13.5 C

24.1 C

24.0 C

24.1 C

85 W/m

0.00 mm

20:05

24.0 C

1009.5 hpa

53 %

3.2 km/h aus 116

6.4 km/h aus SW

13.8 C

24.2 C

24.0 C

24.2 C

69 W/m

0.00 mm

20:10

23.9 C

1009.5 hpa

54 %

4.8 km/h aus 116

8.0 km/h aus S

14.1 C

24.2 C

23.9 C

24.2 C

59 W/m

0.00 mm

20:15

23.9 C

1009.6 hpa

54 %

6.4 km/h aus 117

9.7 km/h aus S

14.1 C

24.2 C

23.9 C

24.2 C

58 W/m

0.00 mm

20:20

23.8 C

1009.6 hpa

54 %

6.4 km/h aus 115

9.7 km/h aus S

14.0 C

24.1 C

23.8 C

24.1 C

51 W/m

0.00 mm

20:25

23.8 C

1009.6 hpa

54 %

3.2 km/h aus 114

8.0 km/h aus S

13.9 C

24.0 C

23.8 C

24.0 C

42 W/m

0.00 mm

20:30

23.7 C

1009.6 hpa

54 %

3.2 km/h aus 117

4.8 km/h aus S

13.9 C

23.9 C

23.7 C

23.9 C

42 W/m

0.00 mm

20:35

23.6 C

1009.6 hpa

55 %

4.8 km/h aus 117

6.4 km/h aus S

14.0 C

23.8 C

23.6 C

23.8 C

36 W/m

0.00 mm

20:40

23.4 C

1009.6 hpa

55 %

1.6 km/h aus 117

3.2 km/h aus S

13.9 C

23.6 C

23.4 C

23.6 C

27 W/m

0.00 mm

20:45

23.3 C

1009.6 hpa

55 %

3.2 km/h aus 115

3.2 km/h aus S

13.8 C

23.4 C

23.3 C

23.4 C

25 W/m

0.00 mm

20:50

23.2 C

1009.6 hpa

56 %

1.6 km/h aus 116

3.2 km/h aus S

13.9 C

23.3 C

23.2 C

23.3 C

24 W/m

0.00 mm

20:55

22.9 C

1009.6 hpa

57 %

1.6 km/h aus 117

3.2 km/h aus S

14.0 C

23.1 C

22.9 C

23.1 C

20 W/m

0.00 mm

21:00

22.8 C

1009.7 hpa

57 %

3.2 km/h aus 117

6.4 km/h aus S

13.9 C

22.9 C

22.8 C

22.9 C

18 W/m

0.00 mm

21:05

22.7 C

1009.7 hpa

59 %

3.2 km/h aus 117

4.8 km/h aus S

14.2 C

22.8 C

22.7 C

22.8 C

13 W/m

0.00 mm

21:10

22.5 C

1009.7 hpa

58 %

1.6 km/h aus 114

3.2 km/h aus S

13.8 C

22.5 C

22.5 C

22.5 C

10 W/m

0.00 mm

21:15

22.3 C

1010.0 hpa

59 %

3.2 km/h aus 117

4.8 km/h aus S

13.9 C

22.2 C

22.3 C

22.2 C

8 W/m

0.00 mm

21:20

22.0 C

1010.0 hpa

60 %

3.2 km/h aus 117

3.2 km/h aus S

13.9 C

21.8 C

22.0 C

21.8 C

6 W/m

0.00 mm

21:25

21.7 C

1010.0 hpa

62 %

1.6 km/h aus 117

3.2 km/h aus S

14.1 C

21.6 C

21.7 C

21.6 C

3 W/m

0.00 mm

21:30

21.4 C

1010.0 hpa

63 %

0.0 km/h aus 115

0.0 km/h aus ---

14.1 C

21.2 C

21.4 C

21.2 C

0 W/m

0.00 mm

21:35

21.2 C

1010.0 hpa

64 %

1.6 km/h aus 116

3.2 km/h aus S

14.1 C

20.9 C

21.2 C

20.9 C

0 W/m

0.00 mm

21:40

20.9 C

1010.0 hpa

65 %

1.6 km/h aus 117

3.2 km/h aus S

14.1 C

20.8 C

20.9 C

20.8 C

0 W/m

0.00 mm

21:45

20.7 C

1010.1 hpa

65 %

0.0 km/h aus 116

1.6 km/h aus S

13.9 C

20.6 C

20.7 C

20.6 C

0 W/m

0.00 mm

21:50

20.4 C

1010.1 hpa

66 %

0.0 km/h aus 117

0.0 km/h aus ---

13.9 C

20.5 C

20.4 C

20.5 C

0 W/m

0.00 mm

21:55

20.3 C

1010.1 hpa

66 %

0.0 km/h aus 113

0.0 km/h aus ---

13.8 C

20.4 C

20.3 C

20.4 C

0 W/m

0.00 mm

22:00

20.2 C

1010.1 hpa

66 %

1.6 km/h aus 117

3.2 km/h aus S

13.6 C

20.3 C

20.2 C

20.3 C

0 W/m

0.00 mm

22:05

19.9 C

1010.1 hpa

67 %

3.2 km/h aus 117

3.2 km/h aus S

13.6 C

20.1 C

19.9 C

20.1 C

0 W/m

0.00 mm

22:10

19.8 C

1010.1 hpa

68 %

3.2 km/h aus 118

4.8 km/h aus S

13.7 C

20.0 C

19.8 C

20.0 C

0 W/m

0.00 mm

22:15

19.6 C

1010.1 hpa

69 %

3.2 km/h aus 115

4.8 km/h aus S

13.7 C

19.8 C

19.6 C

19.8 C

0 W/m

0.00 mm

22:20

19.3 C

1010.1 hpa

70 %

4.8 km/h aus 114

4.8 km/h aus S

13.7 C

19.6 C

19.3 C

19.6 C

0 W/m

0.00 mm

22:25

19.2 C

1010.1 hpa

71 %

4.8 km/h aus 117

6.4 km/h aus S

13.8 C

19.4 C

19.2 C

19.4 C

0 W/m

0.00 mm

22:30

18.9 C

1010.1 hpa

71 %

3.2 km/h aus 116

4.8 km/h aus S

13.6 C

19.1 C

18.9 C

19.1 C

0 W/m

0.00 mm

22:35

18.8 C

1010.1 hpa

73 %

4.8 km/h aus 117

6.4 km/h aus S

13.8 C

18.9 C

18.8 C

18.9 C

0 W/m

0.00 mm

22:40

18.6 C

1010.1 hpa

74 %

3.2 km/h aus 115

4.8 km/h aus SE

13.8 C

18.7 C

18.6 C

18.7 C

0 W/m

0.00 mm

22:45

18.4 C

1010.3 hpa

74 %

3.2 km/h aus 116

4.8 km/h aus SE

13.7 C

18.6 C

18.4 C

18.6 C

0 W/m

0.00 mm

22:50

18.2 C

1010.3 hpa

75 %

4.8 km/h aus 117

4.8 km/h aus SE

13.7 C

18.4 C

18.2 C

18.4 C

0 W/m

0.00 mm

22:55

18.1 C

1010.3 hpa

75 %

3.2 km/h aus 116

4.8 km/h aus SE

13.6 C

18.2 C

18.1 C

18.2 C

0 W/m

0.00 mm

23:00

17.9 C

1010.4 hpa

76 %

3.2 km/h aus 117

4.8 km/h aus SE

13.6 C

18.0 C

17.9 C

18.0 C

0 W/m

0.00 mm

23:05

17.7 C

1010.4 hpa

76 %

3.2 km/h aus 114

4.8 km/h aus SE

13.4 C

17.8 C

17.7 C

17.8 C

0 W/m

0.00 mm

23:10

17.6 C

1010.4 hpa

76 %

3.2 km/h aus 115

4.8 km/h aus SE

13.3 C

17.7 C

17.6 C

17.7 C

0 W/m

0.00 mm

23:15

17.5 C

1010.4 hpa

77 %

3.2 km/h aus 117

4.8 km/h aus SE

13.4 C

17.6 C

17.5 C

17.6 C

0 W/m

0.00 mm

23:20

17.3 C

1010.4 hpa

78 %

1.6 km/h aus 117

3.2 km/h aus SE

13.5 C

17.4 C

17.3 C

17.4 C

0 W/m

0.00 mm

23:25

17.2 C

1010.4 hpa

78 %

0.0 km/h aus 116

0.0 km/h aus ---

13.4 C

17.3 C

17.2 C

17.3 C

0 W/m

0.00 mm

23:30

17.1 C

1010.3 hpa

78 %

0.0 km/h aus 114

0.0 km/h aus ---

13.2 C

17.2 C

17.1 C

17.2 C

0 W/m

0.00 mm

23:35

17.0 C

1010.3 hpa

78 %

0.0 km/h aus 116

0.0 km/h aus ---

13.1 C

17.1 C

17.0 C

17.1 C

0 W/m

0.00 mm

23:40

16.9 C

1010.3 hpa

78 %

0.0 km/h aus 117

0.0 km/h aus ---

13.0 C

16.9 C

16.9 C

16.9 C

0 W/m

0.00 mm

23:45

16.8 C

1010.3 hpa

79 %

3.2 km/h aus 117

4.8 km/h aus SE

13.1 C

16.8 C

16.8 C

16.8 C

0 W/m

0.00 mm

23:50

16.7 C

1010.3 hpa

80 %

3.2 km/h aus 115

6.4 km/h aus ESE

13.3 C

16.8 C

16.7 C

16.8 C

0 W/m

0.00 mm

23:55

16.6 C

1010.3 hpa

79 %

3.2 km/h aus 114

4.8 km/h aus ESE

13.0 C

16.7 C

16.6 C

16.7 C

0 W/m

0.00 mm